WetterOnline ( http://www.wetteronline.de )

Wetter aktuell Kiel

Aktuelles Wetter: Kiel/Holtenau (27m)

6-stündlich | Neueste Meldungen
Ortszeit Temperatur Wetter
So, 25.02. 1:00 -1.8° C bedeckt
Sa, 24.02. 19:00 -0.8° C bewölkt
Sa, 24.02. 13:00 0.7° C wolkig
Sa, 24.02. 7:00 0.3° C bedeckt
Sa, 24.02. 1:00 -0.5° C bedeckt
Fr, 23.02. 19:00 -1.1° C wolkenlos
Fr, 23.02. 13:00 0.6° C fast wolkenlos
Fr, 23.02. 7:00 -3.0° C wolkenlos
Ortszeit Temperatur Wetter
So, 25.02. 6:00 -3.7° C Schneefall
So, 25.02. 5:50 -3.7° C bedeckt
So, 25.02. 5:40 -3.5° C leichter Schneefall
So, 25.02. 5:30 -3.6° C leichter Schneefall
So, 25.02. 5:20 -3.6° C leichter Schneefall
So, 25.02. 5:10 -3.4° C Schneegriesel
So, 25.02. 5:00 -3.3° C leichter Schneefall
So, 25.02. 4:30 -3.2° C leichter Schneefall
So, 25.02. 4:00 -3.1° C leichter Schneefall
So, 25.02. 3:30 -3.1° C leichter Schneefall
So, 25.02. 3:00 -2.7° C Schneefall
Ortszeit Relative Feuchte Sichtweite
So, 25.02. 1:00 70% 55 km
Sa, 24.02. 19:00 66% 55 km
Sa, 24.02. 13:00 58% 22 km
Sa, 24.02. 7:00 80% 35 km
Sa, 24.02. 1:00 81% 14 km
Fr, 23.02. 19:00 68% 17 km
Fr, 23.02. 13:00 60% 5.0 km
Fr, 23.02. 7:00 87% 18 km
Ortszeit Relative Feuchte Sichtweite
So, 25.02. 6:00 93% 18 km
So, 25.02. 5:50 93% -
So, 25.02. 5:40 93% -
So, 25.02. 5:30 94% 10 km
So, 25.02. 5:20 94% -
So, 25.02. 5:10 93% -
So, 25.02. 5:00 92% 3.2 km
So, 25.02. 4:30 90% 2.4 km
So, 25.02. 4:00 93% 2.5 km
So, 25.02. 3:30 91% 3.9 km
So, 25.02. 3:00 84% 0.8 km
Ortszeit Niederschlagsmenge Niederschlagsart
So, 25.02. 1:00 0.1 l/m2 in 6 Std. Schnee
Sa, 24.02. 19:00 0.1 l/m2 in 12 Std. Schnee
Sa, 24.02. 13:00 0.0 l/m2 in 6 Std. -
Sa, 24.02. 7:00 0.1 l/m2 in 12 Std. Schnee, Regen
Sa, 24.02. 1:00 0.0 l/m2 in 6 Std. -
Fr, 23.02. 19:00 0.0 l/m2 in 12 Std. -
Fr, 23.02. 13:00 0.0 l/m2 in 6 Std. -
Fr, 23.02. 7:00 0.1 l/m2 in 12 Std. Schnee
Ortszeit Niederschlagsmenge Niederschlagsart
So, 25.02. 6:00 0.2 l/m2 in 1 Std. Schnee
So, 25.02. 5:50 keine Meldung -
So, 25.02. 5:40 keine Meldung -
So, 25.02. 5:30 0.1 l/m2 in 1 Std. -
So, 25.02. 5:20 keine Meldung -
So, 25.02. 5:10 keine Meldung -
So, 25.02. 5:00 0.3 l/m2 in 1 Std. Schnee
So, 25.02. 4:30 0.2 l/m2 in 1 Std. -
So, 25.02. 4:00 0.3 l/m2 in 1 Std. Schnee
So, 25.02. 3:30 0.3 l/m2 in 1 Std. -
So, 25.02. 3:00 0.1 l/m2 in 1 Std. Schnee
Ortszeit Stärke Spitze Richtung
km/h Bft. km/h Grad Sektor
So, 25.02. 1:00 6 1 39 150° SO
Sa, 24.02. 19:00 18 3 47 90° O
Sa, 24.02. 13:00 26 4 48 90° O
Sa, 24.02. 7:00 26 4 33 80° O
Sa, 24.02. 1:00 4 1 18 120° SO
Fr, 23.02. 19:00 9 2 33 100° O
Fr, 23.02. 13:00 19 3 35 90° O
Fr, 23.02. 7:00 4 1 22 90° O
Ortszeit Stärke Spitze Richtung
km/h Bft. km/h Grad Sektor
So, 25.02. 6:00 2 1 4 330° NW
So, 25.02. 5:50 2 1 - 330° NW
So, 25.02. 5:40 0 0 - 20° N
So, 25.02. 5:30 0 0 4 - -
So, 25.02. 5:20 0 0 - 330° NW
So, 25.02. 5:10 0 0 - 30° NO
So, 25.02. 5:00 4 1 7 70° O
So, 25.02. 4:30 4 1 7 80° O
So, 25.02. 4:00 7 2 11 30° NO
So, 25.02. 3:30 4 1 11 70° O
So, 25.02. 3:00 7 2 11 80° O
Ortszeit Untergrenze Bedeckung Gattung
total tief tief mittel hoch
So, 25.02. 1:00 870 m 8/8 8/8 - - -
Sa, 24.02. 19:00 1380 m 7/8 7/8 - - -
Sa, 24.02. 13:00 1080 m 6/8 7/8 - - -
Sa, 24.02. 7:00 510 m 8/8 8/8 - - -
Sa, 24.02. 1:00 540 m 8/8 8/8 - - -
Fr, 23.02. 19:00 - 0/8 0/8 - - -
Fr, 23.02. 13:00 840 m 1/8 1/8 - - -
Fr, 23.02. 7:00 1170 m 0/8 0/8 - - -
Ortszeit Bedeckungsgrad in Achtel und Wolkenuntergrenze
So, 25.02. 6:00 1(480m) 7(960m) 8(1290m)
So, 25.02. 5:50 1(480m) 7(960m) 8(1290m)
So, 25.02. 5:40 1(480m) 7(870m) 8(1110m)
So, 25.02. 5:30 3(450m) 8(930m) 8(1290m)
So, 25.02. 5:20 3(450m) 8(930m) 8(1290m)
So, 25.02. 5:10 6(420m) 8(750m) 8(1440m)
So, 25.02. 5:00 1(240m) 7(480m) 8(690m)
So, 25.02. 4:30 1(180m) 3(330m) 8(540m)
So, 25.02. 4:00 1(420m) 7(810m) 8(1500m)
So, 25.02. 3:30 1(330m) 8(840m) 8(1500m)
So, 25.02. 3:00 1(330m) 4(630m) 8(840m)
Ortszeit Luftdruck NN (hPa) Tendenz (hPa in 3 Std.)
So, 25.02. 1:00 1035 + 0,3
Sa, 24.02. 19:00 1035 + 0,4
Sa, 24.02. 13:00 1034 + 0,6
Sa, 24.02. 7:00 1032 + 1,2
Sa, 24.02. 1:00 1030 + 0,5
Fr, 23.02. 19:00 1029 + 0,2
Fr, 23.02. 13:00 1029 0,0
Fr, 23.02. 7:00 1028 + 0,6
Ortszeit Luftdruck NN (hPa) Tendenz (hPa in 3 Std.)
So, 25.02. 6:00 1035 - 0,1
So, 25.02. 5:50 1035 keine Meldung
So, 25.02. 5:40 1035 keine Meldung
So, 25.02. 5:30 1035 - 0,3
So, 25.02. 5:20 1035 keine Meldung
So, 25.02. 5:10 1035 keine Meldung
So, 25.02. 5:00 1035 - 0,2
So, 25.02. 4:30 1035 - 0,2
So, 25.02. 4:00 1036 + 0,1
So, 25.02. 3:30 1035 - 0,1
So, 25.02. 3:00 1035 + 0,1
Ortszeit Schneehöhe (cm)
So, 25.02. 1:00 0
Sa, 24.02. 19:00 0
Sa, 24.02. 13:00 0
Sa, 24.02. 7:00 0
Sa, 24.02. 1:00 0
Fr, 23.02. 19:00 0
Fr, 23.02. 13:00 0
Fr, 23.02. 7:00 0
Ortszeit Schneehöhe (cm)
So, 25.02. 6:00 1
So, 25.02. 5:50 1
So, 25.02. 5:40 1
So, 25.02. 5:30 1
So, 25.02. 5:20 1
So, 25.02. 5:10 1
So, 25.02. 5:00 1
So, 25.02. 4:30 1
So, 25.02. 4:00 0
So, 25.02. 3:30 0
So, 25.02. 3:00 0
Link zu dieser Seite / Seite empfehlen

Das Wetter in ...